Location: Marcé
(47.5801°N, 0.3280°W)
Time: 18:14:54
(UTC+01:00)

Tiros 1 despin weight - Pass Details

Date: 30 November 2021
Orbit: 592 x 641 km, 48.2° (Epoch: 21 January)

Event Time Altitude Azimuth Distance (km) Brightness Sun altitude
Rises 20:20:56 0° 285° (WNW) 2,828 ? -31.0°
Reaches altitude 10° 20:23:15 10° 280° (W) 1,928 ? -31.4°
Enters shadow 20:25:32 28° 266° (W) 1,117 ? -31.8°
